Location: ASU Dark Sky Observatory
(36.2504°N, 81.4125°W)
Time: 07:49:21
(UTC-04:00)

ETS-7 - Visible Passes

Search period start: 30 September 2014 00:00
Search period end: 10 October 2014 00:00
Orbit: 409 x 412 km, 35.0° (Epoch: 29 September)

Date Brightness Start Highest point End Pass type
(mag) Time Alt. Az. Time Alt. Az. Time Alt. Az.
06 Oct 5.1 21:04:06 10° SW 21:04:26 12° SW 21:04:26 12° SW visible
07 Oct 3.7 20:12:15 10° SSW 20:14:55 23° SSE 20:15:10 22° SSE visible
08 Oct 4.2 19:20:31 10° SSW 19:22:45 17° SSE 19:25:00 10° ESE visible
08 Oct 4.3 20:57:00 10° WSW 20:58:28 23° SW 20:58:28 23° SW visible
09 Oct 2.8 20:04:48 10° SW 20:07:57 41° SSE 20:08:56 31° ESE visible
